M I D A S
Marine Information and Data Acquisition System
Tripno 1283 of the Zeeleeuw from 2007-06-08 04:51:00 to 2007-06-08 10:51:00
Back to CruiseResearch ActivitiesStationsMapUnderway DataData graphs

EquipmentUnitsComment
TimeDGPSUTC
LatitudeDGPSDM.mWGS84
LongitudeDGPSDM.mWGS84
HeadingGyrodeg 
SOGDGPSknotsSpeed over ground
COGDGPSdegCourse over ground
DepthEcho soundermeters200 kHz
Missing or incorrect values are displayed as -999
Navigation data collected by the RV Zeeleeuw from 2007-06-08 04:51:00 to 2007-06-08 10:51:00
Time Latitude Longitude Heading SOG COG Depth
2007-06-08 05:14:41 51°13.581 2°56.134 126.5 0.1 49 10.9
2007-06-08 05:28:11 51°13.581 2°56.127 118.7 1.3 295 11
2007-06-08 05:29:11 51°13.606 2°56.05 119.5 4.8 297 -999
2007-06-08 05:30:11 51°13.653 2°55.922 124.2 5.9 303 -999
2007-06-08 05:31:11 51°13.711 2°55.793 130.2 5.9 308 -999
2007-06-08 05:32:11 51°13.782 2°55.686 147.3 6 325 -999
2007-06-08 05:33:11 51°13.868 2°55.634 179.2 5.3 356 -999
2007-06-08 05:34:11 51°13.938 2°55.652 197.8 2.3 21 5
2007-06-08 05:35:11 51°13.926 2°55.605 266.1 3.4 268 13.5
2007-06-08 05:36:16 51°13.927 2°55.578 312.6 1.3 314 13.8
2007-06-08 05:37:16 51°13.994 2°55.535 339.8 6.1 337 13.8
2007-06-08 05:38:16 51°14.1 2°55.463 336.9 7.3 334 13.8
2007-06-08 05:39:16 51°14.216 2°55.343 325.3 9.4 320 13.7
2007-06-08 05:40:16 51°14.33 2°55.14 311 10.8 309 13.6
2007-06-08 05:41:16 51°14.478 2°54.961 331.5 12.1 331 12.5
2007-06-08 05:42:16 51°14.662 2°54.813 330.7 12.4 332 11.8
2007-06-08 05:43:16 51°14.846 2°54.663 332.1 12.4 334 11.8
2007-06-08 05:44:16 51°15.034 2°54.518 329.1 12.5 330 11.1
2007-06-08 05:45:16 51°15.21 2°54.348 329 12.3 330 11.3
2007-06-08 05:46:16 51°15.388 2°54.185 329.1 12.3 330 12.2
2007-06-08 05:47:16 51°15.561 2°54.024 329.6 12.3 330 12.5
2007-06-08 05:48:16 51°15.735 2°53.863 329.5 12.6 330 13.4
2007-06-08 05:49:16 51°15.915 2°53.7 329.9 12.6 330 13.6
2007-06-08 05:50:16 51°16.096 2°53.534 328.7 12.4 330 13.8
2007-06-08 05:51:16 51°16.274 2°53.375 328.9 12.4 331 14.1
2007-06-08 05:52:16 51°16.452 2°53.215 329.1 12.3 331 14.2
2007-06-08 05:53:16 51°16.631 2°53.056 329 12.1 331 13.8
2007-06-08 05:54:16 51°16.772 2°52.962 350.1 7.1 4 13.5
2007-06-08 05:55:16 51°16.837 2°53.086 84.7 6.5 88 -999
2007-06-08 05:56:16 51°16.815 2°53.273 108.8 7.8 95 13.6
2007-06-08 05:57:16 51°16.815 2°53.486 93.9 8.3 85 13.7
2007-06-08 05:58:16 51°16.815 2°53.697 114 6.9 113 13.6
2007-06-08 05:59:16 51°16.735 2°53.77 187 5.8 171 13.8
2007-06-08 06:00:16 51°16.632 2°53.797 187.1 6.5 170 14.1
2007-06-08 06:01:16 51°16.526 2°53.863 168.3 7.3 151 14
2007-06-08 06:02:16 51°16.422 2°53.973 158.6 8.9 143 14
2007-06-08 06:03:16 51°16.267 2°54.13 159.5 12.1 151 13.6
2007-06-08 06:04:15 51°16.099 2°54.281 161.5 12.5 152 13.4
2007-06-08 06:05:16 51°15.918 2°54.409 166.8 11.6 158 13.1
2007-06-08 06:06:16 51°15.736 2°54.502 171.6 11.7 167 12.5
2007-06-08 06:07:15 51°15.554 2°54.57 176.9 10.8 168 12
2007-06-08 06:08:16 51°15.401 2°54.618 182.1 8.4 168 11.6
2007-06-08 06:09:15 51°15.285 2°54.64 188.8 6.5 175 11.2
2007-06-08 06:10:16 51°15.181 2°54.643 187.4 6 177 11.2
2007-06-08 06:11:15 51°15.083 2°54.666 184.1 6 174 10.9
2007-06-08 06:12:15 51°14.985 2°54.704 180.3 6 164 11.6
2007-06-08 06:13:16 51°14.887 2°54.74 182.2 5.8 170 11.8
2007-06-08 06:14:15 51°14.792 2°54.766 183.6 5.9 169 12
2007-06-08 06:15:16 51°14.675 2°54.815 173.1 10 164 11.8
2007-06-08 06:16:15 51°14.487 2°54.924 163.3 13.5 154 11.9
2007-06-08 06:17:16 51°14.324 2°55.149 136.7 13.1 129 13.5
2007-06-08 06:18:16 51°14.183 2°55.374 145.8 10.3 142 -999
2007-06-08 06:19:16 51°14.05 2°55.482 159.7 8.1 156 13.6
2007-06-08 06:20:15 51°13.939 2°55.557 161.1 7 157 -999
2007-06-08 06:21:15 51°13.833 2°55.629 158.8 6.9 156 13.6
2007-06-08 06:22:16 51°13.744 2°55.73 137.7 6.1 134 13.7
2007-06-08 06:23:15 51°13.683 2°55.843 131.1 5.3 127 13.4
2007-06-08 06:24:16 51°13.634 2°55.947 127.9 4.2 124 13.4
2007-06-08 06:25:15 51°13.603 2°56.035 116.8 3.6 115 13.5
2007-06-08 06:26:16 51°13.587 2°56.108 108 1.9 105 10.8
2007-06-08 06:27:16 51°13.582 2°56.126 110 0.5 121 10.8
2007-06-08 06:28:17 51°13.579 2°56.133 115.5 0.1 74 10.7
2007-06-08 06:29:52 51°13.581 2°56.133 126.3 0.1 7 -999